This demonstration page uses our WeatherBlox Daily Observations layout. Learn more.

Left ArrowRight Arrow

44.31136, -96.79839

Hourly Observations for May 5, 2022

Temp ( °F °C ) Dew Point ( °F °C ) Humidity (%) Winds ( mph kmh ) Pressure ( in mb ) Visibility ( mi km ) Precip ( " mm )
12:16 am 00:16 Cloudy 48 9 41 5 76 76 Calm 30.13 1020 10 16 0.00 0.00
12:56 am 00:56 Cloudy 48 8.9 42 5.6 80 80 NE 5 7 30.15 1021 10 16 0.00 0.00
1:56 am 01:56 Cloudy 49 9.4 42 5.6 77 77 E 3 6 N/A 10 16 0.00 0.00
2:56 am 02:56 Cloudy 48 8.9 42 5.6 80 80 ESE 3 6 30.13 1020 10 16 0.00 0.00
3:56 am 03:56 Cloudy with Light Rain 48 8.9 42 5.6 80 80 ESE 8 13 30.12 1020 10 16 0.00 0.00
4:39 am 04:39 Cloudy with Light Rain 46 8 43 6 87 87 ESE 6 9 30.08 1019 8 13 0.01 0.25
4:56 am 04:56 Cloudy with Light Rain 46 7.8 43 6.1 89 89 SE 7 11 30.13 1020 9 14 0.01 0.25
5:40 am 05:40 Cloudy with Light Rain 46 8 43 6 87 87 E 6 9 30.08 1019 8 13 0.00 0.00
5:56 am 05:56 Cloudy with Light Rain 46 7.8 43 6.1 89 89 E 7 11 30.11 1020 10 16 0.01 0.25
6:56 am 06:56 Cloudy 46 7.8 43 6.1 89 89 E 5 7 30.11 1020 10 16 0.00 0.00
7:56 am 07:56 Cloudy 47 8.3 43 6.1 86 86 E 3 6 30.12 1020 10 16 0.00 0.00
8:56 am 08:56 Cloudy with Light Rain 48 8.9 44 6.7 86 86 ESE 6 9 30.12 1020 10 16 0.00 0.00
9:56 am 09:56 Cloudy with Light Rain 49 9.4 45 7.2 86 86 E 5 7 30.12 1020 10 16 0.00 0.00
10:56 am 10:56 Cloudy with Rain 49 9.4 45 7.2 86 86 E 9 15 30.11 1020 5 8 0.02 0.51
11:23 am 11:23 Cloudy with Light Rain 50 10 46 8 88 88 E 10 17 30.06 1018 10 16 0.01 0.25
11:37 am 11:37 Cloudy 52 11 45 7 77 77 E 9 15 30.05 1018 10 16 0.01 0.25
11:56 am 11:56 Cloudy 52 11.1 46 7.8 80 80 E 12 19 30.10 1019 10 16 0.01 0.25
12:56 pm 12:56 Cloudy 53 11.7 44 6.7 72 72 E 14 22 30.09 1019 10 16 0.00 0.00
1:08 pm 13:08 Cloudy 54 12 45 7 72 72 SE 13 20 30.03 1017 10 16 0.00 0.00
1:56 pm 13:56 Cloudy 53 11.7 44 6.7 72 72 ESE 16 26 30.07 1018 10 16 0.00 0.00
2:10 pm 14:10 Cloudy 54 12 45 7 72 72 E 12 19 30.02 1017 10 16 0.00 0.00
2:56 pm 14:56 Cloudy 53 11.7 45 7.2 74 74 ESE 10 17 30.05 1018 10 16 0.00 0.00
3:56 pm 15:56 Cloudy 55 12.8 45 7.2 69 69 E 12 19 30.01 1016 10 16 0.00 0.00
4:56 pm 16:56 Cloudy 56 13.3 45 7.2 67 67 E 9 15 30.00 1016 10 16 0.00 0.00
5:56 pm 17:56 Cloudy 55 12.8 45 7.2 69 69 E 10 17 29.99 1016 10 16 0.00 0.00
6:56 pm 18:56 Cloudy 55 12.8 45 7.2 69 69 ESE 8 13 29.99 1016 10 16 0.00 0.00
7:15 pm 19:15 Cloudy 55 13 45 7 67 67 ESE 10 17 29.93 1014 10 16 0.00 0.00
7:56 pm 19:56 Cloudy 55 12.8 46 7.8 72 72 ESE 8 13 30.00 1016 10 16 0.00 0.00
8:20 pm 20:20 Cloudy 55 13 46 8 72 72 ESE 7 11 29.94 1014 10 16 0.00 0.00
8:56 pm 20:56 Cloudy 54 12.2 46 7.8 75 75 E 5 7 30.01 1016 10 16 0.00 0.00
9:56 pm 21:56 Cloudy 54 12.2 46 7.8 75 75 E 6 9 30.02 1017 10 16 0.00 0.00
10:56 pm 22:56 Cloudy 53 11.7 46 7.8 77 77 E 5 7 30.02 1017 10 16 0.00 0.00
11:33 pm 23:33 Cloudy 54 12 46 8 77 77 E 5 7 29.96 1014 10 16 0.00 0.00
11:56 pm 23:56 Cloudy 53 11.7 47 8.3 80 80 ESE 7 11 30.00 1016 10 16 0.00 0.00

Powered by AerisWeather